NULL Weather Reports


time (UTC)temp
F
wind
direction
speed
knots
gust
knots
rain 1hr
in
rain 24hr
in
rain mn
in
humidity
%
barometer
mb
20260507073052 61 209 0.0 0.0 0.00 0.00 0.00 83 1016.5
20260507073010 46 229 3.5 6.1 0.00 0.00 0.00 71 1018.4
20260507071551 61 209 0.0 0.0 0.00 0.00 0.00 82 1016.6
20260507071514 46 215 3.5 5.2 0.00 0.00 0.00 71 1018.5
20260507070045 62 209 0.0 0.0 0.00 0.00 0.00 82 1016.7
20260507070015 47 202 2.6 4.3 0.00 0.00 0.00 70 1018.7
20260507064544 62 209 0.0 0.0 0.00 0.00 0.00 80 1016.9
20260507064505 47 226 1.7 5.2 0.00 0.00 0.00 69 1018.7
20260507063048 62 209 0.0 0.0 0.00 0.00 0.00 80 1017.0
20260507063002 48 197 2.6 4.3 0.00 0.00 0.00 68 1018.9
20260507061601 48 215 1.7 4.3 0.00 0.00 0.00 66 1019.0
20260507061544 62 209 0.0 0.0 0.00 0.00 0.00 79 1016.7
20260507060100 49 197 2.6 6.1 0.00 0.00 0.00 65 1019.1
20260507060051 62 209 0.0 0.0 0.00 0.00 0.00 78 1016.8
20260507054557 48 188 1.7 3.5 0.00 0.02 0.00 70 1019.0
20260507054548 63 209 0.0 0.0 0.00 0.00 0.00 77 1016.8
20260507053057 48 199 1.7 2.6 0.00 0.02 0.00 73 1019.1
20260507053049 63 209 0.0 0.0 0.00 0.00 0.00 77 1016.7
20260507051559 47 181 0.9 2.6 0.00 0.02 0.00 74 1018.9
20260507051542 63 209 0.0 0.0 0.00 0.00 0.00 76 1016.7
20260507050105 47 204 0.9 2.6 0.00 0.02 0.00 73 1019.0
20260507050041 63 209 0.0 0.0 0.00 0.00 0.00 76 1016.8
20260507044554 64 209 0.0 0.0 0.00 0.00 0.00 74 1016.7
20260507043048 47 185 0.9 2.6 0.00 0.03 0.02 71 1019.1
20260507043040 64 209 0.0 0.0 0.00 0.00 0.00 73 1016.6
20260507041548 47 166 0.9 3.5 0.00 0.03 0.02 71 1019.0
20260507041540 64 209 0.0 0.0 0.00 0.00 0.00 72 1016.6
20260507040050 47 173 0.9 2.6 0.00 0.03 0.02 72 1019.2
20260507040040 65 209 0.0 0.0 0.00 0.00 0.00 71 1016.3
20260507034549 46 205 1.7 4.3 0.00 0.03 0.02 73 1019.3
20260507034542 65 209 0.0 0.0 0.00 0.00 0.00 70 1016.2
20260507033048 46 178 1.7 3.5 0.00 0.03 0.02 72 1019.4
20260507033038 66 209 0.0 0.0 0.00 0.00 0.00 70 1016.1
20260507031546 47 165 1.7 4.3 0.00 0.03 0.02 72 1019.1
20260507031538 66 209 0.0 0.0 0.00 0.00 0.00 69 1016.0
20260507030047 47 197 2.6 5.2 0.00 0.03 0.02 70 1019.2
20260507030038 67 209 0.0 0.0 0.00 0.00 0.00 67 1015.8
20260507024548 48 206 0.9 3.5 0.00 0.03 0.02 68 1019.1
20260507024541 67 207 0.0 0.0 0.00 0.00 0.00 66 1015.7
20260507023045 49 202 1.7 4.3 0.00 0.03 0.02 65 1018.9
20260507023036 68 207 0.0 0.0 0.00 0.00 0.00 66 1015.5
20260507021555 50 359 0.0 1.7 0.00 0.03 0.02 63 1018.9
20260507021536 69 194 0.0 0.0 0.00 0.00 0.00 66 1015.4
20260507020044 51 216 0.9 2.6 0.00 0.03 0.02 58 1018.7
20260507014544 52 209 1.7 2.6 0.00 0.03 0.02 55 1018.5
20260507014536 69 161 0.0 0.0 0.00 0.00 0.00 67 1015.2
20260507013043 54 300 0.0 0.9 0.00 0.03 0.02 51 1018.4
20260507013034 69 146 0.0 0.9 0.00 0.00 0.00 69 1015.0
20260507011545 56 298 0.0 0.0 0.00 0.03 0.02 43 1018.4
20260507011534 68 167 0.0 0.0 0.00 0.00 0.00 69 1015.0
20260507010045 57 298 0.0 2.6 0.00 0.03 0.02 36 1018.3
20260507010037 69 140 0.0 0.0 0.00 0.00 0.00 68 1014.8
20260507004543 58 339 0.9 2.6 0.00 0.03 0.02 34 1018.4
20260507004534 70 163 0.0 0.9 0.00 0.00 0.00 63 1014.9
20260507003041 59 280 0.9 3.5 0.00 0.03 0.02 33 1018.3
20260507003033 70 144 0.0 0.0 0.00 0.00 0.00 63 1014.9
20260507001541 59 301 0.9 5.2 0.00 0.03 0.02 34 1018.4
20260507001538 71 162 0.0 0.0 0.00 0.00 0.00 63 1014.9
20260507000041 59 13 2.6 7.8 0.00 0.03 0.02 33 1018.3
20260507000030 71 132 0.0 0.0 0.00 0.00 0.00 61 1014.8
20260506234550 59 274 0.9 4.3 0.00 0.03 0.02 33 1018.6
20260506234529 71 136 0.0 0.0 0.00 0.00 0.00 62 1014.9
20260506233040 59 8 3.5 7.0 0.00 0.03 0.02 33 1018.4
20260506233031 71 139 0.0 0.0 0.00 0.00 0.00 63 1014.9
20260506231538 59 332 7.0 10.4 0.00 0.03 0.02 32 1018.5
20260506231529 71 148 0.0 0.9 0.00 0.00 0.00 61 1015.1
20260506230038 59 331 4.3 9.6 0.00 0.03 0.02 34 1018.5
20260506230025 71 152 0.0 0.0 0.00 0.00 0.00 61 1015.1
20260506224544 60 322 7.0 13.9 0.00 0.03 0.02 32 1018.5
20260506224524 71 150 0.0 0.0 0.00 0.00 0.00 61 1015.2
20260506223037 59 303 6.1 13.0 0.00 0.03 0.02 33 1018.6
20260506223023 72 210 0.0 0.9 0.00 0.00 0.00 59 1015.4
20260506221536 59 332 3.5 11.3 0.00 0.03 0.02 32 1018.7
20260506221522 72 139 0.0 0.0 0.00 0.00 0.00 59 1015.4
20260506220037 60 354 5.2 13.9 0.00 0.03 0.02 33 1018.7
20260506220020 73 185 0.0 0.9 0.00 0.00 0.00 57 1015.6
20260506214535 59 345 3.5 9.6 0.00 0.03 0.02 33 1018.8
20260506214518 74 173 0.0 0.0 0.00 0.00 0.00 54 1015.7
20260506213034 58 274 4.3 12.2 0.00 0.03 0.02 34 1019.0
20260506213016 73 150 0.0 0.0 0.00 0.00 0.00 56 1015.8
20260506211533 59 335 5.2 10.4 0.00 0.03 0.02 32 1019.1
20260506211514 73 151 0.0 0.0 0.00 0.00 0.00 56 1016.1
20260506210037 59 359 6.1 17.4 0.00 0.03 0.02 33 1019.6
20260506210014 73 136 0.0 0.0 0.00 0.00 0.00 57 1016.1
20260506204547 59 338 6.1 11.3 0.00 0.03 0.02 35 1019.8
20260506204506 73 135 0.0 0.0 0.00 0.00 0.00 57 1016.4
20260506203032 59 13 4.3 11.3 0.00 0.03 0.02 33 1020.0
20260506203002 73 134 0.0 0.0 0.00 0.00 0.00 58 1016.4
20260506201534 58 55 2.6 12.2 0.00 0.03 0.02 34 1020.0
20260506201502 72 141 0.0 0.0 0.00 0.00 0.00 59 1016.7
20260506200100 72 168 0.0 0.0 0.00 0.00 0.00 59 1016.8
20260506200028 58 8 2.6 13.0 0.00 0.03 0.02 34 1020.2
20260506194605 71 170 0.0 6.1 0.00 0.00 0.00 61 1016.9
20260506194527 57 56 3.5 10.4 0.00 0.03 0.02 37 1020.2
20260506193059 71 124 0.0 2.6 0.00 0.00 0.00 61 1017.0
20260506193025 57 359 5.2 10.4 0.00 0.03 0.02 35 1020.4
20260506191555 71 166 0.0 6.1 0.00 0.00 0.00 61 1017.2
20260506191526 57 359 7.8 14.8 0.00 0.03 0.02 34 1020.3
20260506190053 69 146 0.9 6.1 0.00 0.00 0.00 65 1017.3
20260506190023 57 350 4.3 12.2 0.00 0.03 0.02 36 1020.5
20260506184556 70 142 0.0 0.9 0.00 0.00 0.00 64 1017.5
20260506184522 56 359 5.2 9.6 0.00 0.03 0.02 36 1020.5
20260506183100 71 132 0.0 1.7 0.00 0.00 0.00 62 1017.6
20260506183021 56 359 5.2 11.3 0.00 0.03 0.02 36 1020.8
20260506181551 71 157 0.0 0.0 0.00 0.00 0.00 62 1017.8
20260506181525 55 359 2.6 9.6 0.00 0.03 0.02 36 1021.1
20260506180051 70 155 0.0 0.0 0.00 0.00 0.00 61 1017.8
20260506180017 55 359 4.3 10.4 0.00 0.03 0.02 37 1021.1
20260506174548 70 155 0.0 0.0 0.00 0.00 0.00 61 1017.8
20260506174517 54 52 3.5 12.2 0.00 0.03 0.02 38 1021.3
20260506173048 70 140 0.0 2.6 0.00 0.00 0.00 61 1017.8
20260506173015 54 359 8.7 13.0 0.00 0.03 0.02 36 1021.4
20260506171553 69 142 0.0 0.0 0.00 0.00 0.00 62 1018.0
20260506171525 54 328 3.5 13.9 0.00 0.03 0.02 38 1021.3
20260506170040 68 112 0.0 0.0 0.00 0.00 0.00 64 1017.9
20260506170014 54 359 3.5 11.3 0.00 0.03 0.02 40 1021.4
20260506164536 67 117 0.0 0.9 0.00 0.00 0.00 65 1017.7
20260506164514 54 359 1.7 13.0 0.00 0.03 0.02 41 1021.5
20260506163040 66 144 0.0 3.5 0.00 0.00 0.00 68 1017.9
20260506163011 54 359 6.1 11.3 0.00 0.03 0.02 39 1021.4
20260506161529 64 128 0.0 3.5 0.00 0.00 0.00 70 1017.8
20260506161510 54 359 5.2 13.0 0.00 0.03 0.02 40 1021.4
20260506160023 63 143 0.0 5.2 0.00 0.00 0.00 74 1017.8
20260506160006 54 359 8.7 15.6 0.00 0.03 0.02 41 1021.1
20260506154520 62 140 0.0 0.0 0.00 0.00 0.00 76 1017.8
20260506154505 53 359 7.0 11.3 0.00 0.04 0.02 42 1020.8
20260506153018 62 154 0.0 0.0 0.00 0.00 0.00 76 1017.9
20260506153001 53 359 3.5 14.8 0.00 0.04 0.02 47 1020.9
20260506151610 52 39 6.1 13.0 0.00 0.04 0.02 43 1020.9
20260506151529 61 154 0.0 0.0 0.00 0.00 0.00 77 1017.8
20260506150057 52 33 5.2 10.4 0.00 0.04 0.02 51 1020.9
20260506150012 60 155 0.0 0.9 0.00 0.00 0.00 77 1017.9
20260506144603 51 37 4.3 8.7 0.00 0.13 0.02 54 1020.9
20260506144510 59 155 0.0 0.9 0.00 0.00 0.00 79 1018.0
20260506143055 50 343 4.3 7.8 0.00 0.13 0.02 54 1020.9
20260506143007 58 155 0.0 0.9 0.00 0.00 0.00 80 1017.8
20260506141549 50 354 4.3 7.8 0.00 0.13 0.02 56 1020.7
20260506141506 56 155 0.0 0.9 0.00 0.00 0.00 82 1017.7
20260506140053 49 290 3.5 7.0 0.00 0.13 0.02 59 1020.6
20260506140005 55 155 0.0 0.0 0.00 0.00 0.00 83 1017.5
20260506134544 49 38 2.6 5.2 0.00 0.25 0.02 61 1020.3
20260506134504 54 155 0.0 0.0 0.00 0.00 0.00 85 1017.5
20260506133043 49 322 3.5 7.0 0.00 0.25 0.02 60 1020.2
20260506133003 53 155 0.0 0.0 0.00 0.00 0.00 87 1017.4
20260506131601 53 155 0.0 0.0 0.00 0.00 0.00 87 1017.2
20260506131539 49 345 3.5 7.8 0.00 0.25 0.02 62 1019.8
20260506130100 53 155 0.0 0.0 0.00 0.00 0.00 87 1017.1
20260506130037 48 306 2.6 7.0 0.00 0.25 0.02 68 1019.5
20260506124558 53 155 0.0 0.0 0.00 0.00 0.00 86 1016.8
20260506124535 47 337 0.9 4.3 0.00 0.30 0.02 75 1019.5
20260506123056 54 155 0.0 0.0 0.00 0.00 0.00 86 1016.6
20260506123033 46 354 1.7 3.5 0.00 0.30 0.02 82 1018.9
20260506121554 54 155 0.0 0.0 0.00 0.00 0.00 86 1016.6
20260506121531 45 214 0.0 1.7 0.00 0.30 0.02 86 1018.8
20260506120053 54 155 0.0 0.0 0.00 0.00 0.00 86 1016.7
20260506120032 44 204 0.0 0.0 0.00 0.30 0.02 86 1018.4
20260506114558 54 155 0.0 0.0 0.00 0.00 0.00 86 1016.6
20260506114539 45 359 0.0 0.0 0.00 0.31 0.02 85 1018.0
20260506113057 55 155 0.0 0.0 0.00 0.00 0.00 86 1016.5
20260506113024 45 214 0.0 0.0 0.00 0.31 0.02 85 1017.8
20260506111551 55 155 0.0 0.0 0.00 0.00 0.00 87 1016.5
20260506111523 46 359 0.0 0.9 0.00 0.31 0.02 85 1017.9
20260506110046 55 155 0.0 0.0 0.00 0.00 0.00 87 1016.6
20260506110024 46 216 0.0 0.9 0.00 0.31 0.02 84 1017.9
20260506104553 56 155 0.0 0.0 0.00 0.01 0.00 87 1016.7
20260506104522 46 213 0.9 3.5 0.00 0.31 0.02 83 1018.1
20260506103043 56 155 0.0 0.0 0.00 0.01 0.00 87 1016.6
20260506103021 46 218 0.9 3.5 0.00 0.31 0.02 82 1018.0
20260506101549 56 155 0.0 0.0 0.00 0.01 0.00 88 1016.7
20260506101537 46 246 1.7 3.5 0.00 0.31 0.02 85 1018.0
20260506100040 56 155 0.0 0.0 0.00 0.01 0.00 88 1016.6
20260506100018 46 291 0.0 4.3 0.00 0.31 0.02 86 1017.6
20260506094539 57 155 0.0 0.0 0.00 0.11 0.00 88 1016.7
20260506094517 46 197 2.6 5.2 0.00 0.31 0.02 85 1017.0
20260506093038 57 155 0.0 0.0 0.00 0.11 0.00 89 1016.7
20260506093015 46 205 0.9 2.6 0.00 0.31 0.02 85 1017.1
20260506091537 57 155 0.0 0.0 0.00 0.11 0.00 89 1016.7
20260506091519 46 216 0.0 3.5 0.00 0.31 0.02 85 1017.2
20260506090036 57 155 0.0 0.0 0.00 0.11 0.00 88 1016.9
20260506090012 46 229 0.0 0.9 0.00 0.31 0.02 85 1017.2
20260506084540 57 155 0.0 0.0 0.00 0.11 0.00 87 1016.8
20260506084518 46 229 0.9 1.7 0.00 0.31 0.02 85 1017.2
20260506083033 57 155 0.0 0.0 0.00 0.11 0.00 87 1016.9
20260506083010 46 229 0.9 2.6 0.00 0.31 0.02 85 1017.2
20260506081530 57 155 0.0 0.0 0.00 0.11 0.00 87 1017.0
20260506081509 46 212 0.0 0.0 0.00 0.31 0.02 85 1017.0